Time,TemperatureF,DewpointF,PressureIn,WindDirection,WindDirectionDegrees,WindSpeedMPH,WindSpeedGustMPH,Humidity,HourlyPrecipIn,Conditions,Clouds,dailyrainin,SoftwareType,DateUTC
2013-02-24 00:01:00,24.0,18.0,29.86,SSE,159,6.0,10.0,77,0.00,,,-99.99,,2013-02-24 06:01:00,
2013-02-24 00:11:00,24.0,18.0,29.86,SSE,159,6.0,10.0,77,0.00,,,-99.99,,2013-02-24 06:11:00,
2013-02-24 00:21:00,24.0,18.0,29.86,SSE,160,5.0,7.0,79,0.00,,,-99.99,,2013-02-24 06:21:00,
2013-02-24 00:31:00,24.0,18.0,29.85,SSE,152,7.0,10.0,79,0.00,,,-99.99,,2013-02-24 06:31:00,
2013-02-24 00:42:00,24.0,18.0,29.85,SSE,152,7.0,10.0,79,0.00,,,-99.99,,2013-02-24 06:42:00,
2013-02-24 00:52:00,24.0,19.0,29.85,SSE,156,5.0,9.0,80,0.00,,,-99.99,,2013-02-24 06:52:00,
2013-02-24 01:01:00,27.0,21.0,29.85,SSE,165,8.0,10.0,78,0.00,,,-99.99,,2013-02-24 07:01:00,
2013-02-24 01:12:00,27.0,21.0,29.85,SSE,165,8.0,10.0,78,0.00,,,-99.99,,2013-02-24 07:12:00,
2013-02-24 01:21:00,28.0,21.0,29.85,SSE,163,9.0,14.0,76,0.00,,,-99.99,,2013-02-24 07:21:00,
2013-02-24 01:31:00,28.0,21.0,29.85,SSE,167,10.0,13.0,76,0.00,,,-99.99,,2013-02-24 07:31:00,
2013-02-24 01:42:00,28.0,21.0,29.85,SSE,167,10.0,13.0,76,0.00,,,-99.99,,2013-02-24 07:42:00,
2013-02-24 01:51:00,28.0,21.0,29.85,SSE,163,6.0,13.0,76,0.00,,,-99.99,,2013-02-24 07:51:00,
2013-02-24 02:01:00,27.0,20.0,29.84,South,175,9.0,11.0,76,0.00,,,-99.99,,2013-02-24 08:01:00,
2013-02-24 02:11:00,27.0,20.0,29.84,South,175,9.0,11.0,76,0.00,,,-99.99,,2013-02-24 08:11:00,
2013-02-24 02:22:00,26.0,19.0,29.84,SSE,167,7.0,11.0,76,0.00,,,-99.99,,2013-02-24 08:22:00,
2013-02-24 02:31:00,27.0,20.0,29.87,SSE,168,10.0,13.0,76,0.00,,,-99.99,,2013-02-24 08:31:00,
2013-02-24 02:42:00,27.0,20.0,29.87,SSE,168,10.0,13.0,76,0.00,,,-99.99,,2013-02-24 08:42:00,
2013-02-24 02:53:00,27.0,20.0,29.87,SSE,168,10.0,13.0,76,0.00,,,-99.99,,2013-02-24 08:53:00,
2013-02-24 03:01:00,28.0,21.0,29.87,South,172,8.0,13.0,74,0.00,,,-99.99,,2013-02-24 09:01:00,
2013-02-24 03:11:00,28.0,21.0,29.87,South,172,8.0,13.0,74,0.00,,,-99.99,,2013-02-24 09:11:00,
2013-02-24 03:21:00,28.0,21.0,29.86,South,170,8.0,15.0,74,0.00,,,-99.99,,2013-02-24 09:21:00,
2013-02-24 03:31:00,27.0,20.0,29.86,SSE,159,8.0,11.0,74,0.00,,,-99.99,,2013-02-24 09:31:00,
2013-02-24 03:42:00,27.0,20.0,29.86,SSE,159,8.0,11.0,74,0.00,,,-99.99,,2013-02-24 09:42:00,
2013-02-24 03:51:00,26.0,19.0,29.86,SE,146,6.0,9.0,74,0.00,,,-99.99,,2013-02-24 09:51:00,
2013-02-24 04:01:00,25.0,18.0,29.86,SSE,155,5.0,6.0,75,0.00,,,-99.99,,2013-02-24 10:01:00,
2013-02-24 04:11:00,25.0,18.0,29.86,SSE,155,5.0,6.0,75,0.00,,,-99.99,,2013-02-24 10:11:00,
2013-02-24 04:21:00,25.0,18.0,29.85,SE,146,5.0,7.0,75,0.00,,,-99.99,,2013-02-24 10:21:00,
2013-02-24 04:32:00,25.0,18.0,29.85,SSE,153,4.0,6.0,75,0.00,,,-99.99,,2013-02-24 10:32:00,
2013-02-24 04:41:00,25.0,18.0,29.85,SSE,153,4.0,6.0,75,0.00,,,-99.99,,2013-02-24 10:41:00,
2013-02-24 04:51:00,26.0,19.0,29.86,SSE,153,3.0,5.0,76,0.00,,,-99.99,,2013-02-24 10:51:00,
2013-02-24 05:01:00,26.0,19.0,29.86,SSE,153,1.0,4.0,76,0.00,,,-99.99,,2013-02-24 11:01:00,
2013-02-24 05:11:00,26.0,19.0,29.86,SSE,153,1.0,4.0,76,0.00,,,-99.99,,2013-02-24 11:11:00,
2013-02-24 05:21:00,23.0,16.0,29.86,SSE,153,0.0,2.0,75,0.00,,,-99.99,,2013-02-24 11:21:00,
2013-02-24 05:32:00,21.0,15.0,29.86,SSE,153,0.0,0.0,78,0.00,,,-99.99,,2013-02-24 11:32:00,
2013-02-24 05:41:00,21.0,15.0,29.86,SSE,153,0.0,0.0,78,0.00,,,-99.99,,2013-02-24 11:41:00,
2013-02-24 05:52:00,19.0,14.0,29.87,SSE,153,0.0,0.0,79,0.00,,,-99.99,,2013-02-24 11:52:00,
2013-02-24 06:01:00,18.0,13.0,29.88,SSE,153,0.0,0.0,80,0.00,,,-99.99,,2013-02-24 12:01:00,
2013-02-24 06:11:00,18.0,13.0,29.88,SSE,153,0.0,0.0,80,0.00,,,-99.99,,2013-02-24 12:11:00,
2013-02-24 06:21:00,16.0,11.0,29.87,SSE,153,0.0,0.0,81,0.00,,,-99.99,,2013-02-24 12:21:00,
2013-02-24 06:32:00,16.0,11.0,29.87,SSE,153,0.0,0.0,82,0.00,,,-99.99,,2013-02-24 12:32:00,
2013-02-24 06:46:00,16.0,11.0,29.87,SSE,153,0.0,0.0,82,0.00,,,-99.99,,2013-02-24 12:46:00,
2013-02-24 06:55:00,15.0,11.0,29.87,SSE,153,0.0,0.0,83,0.00,,,-99.99,,2013-02-24 12:55:00,
2013-02-24 07:26:00,16.0,12.0,29.87,SSE,153,0.0,0.0,84,0.00,,,-99.99,,2013-02-24 13:26:00,
2013-02-24 07:33:00,16.0,12.0,29.87,SSE,153,0.0,0.0,85,0.00,,,-99.99,,2013-02-24 13:33:00,
2013-02-24 07:44:00,16.0,12.0,29.87,SSE,153,0.0,0.0,85,0.00,,,-99.99,,2013-02-24 13:44:00,
2013-02-24 07:52:00,18.0,15.0,29.87,SSE,153,3.0,5.0,87,0.00,,,-99.99,,2013-02-24 13:52:00,
2013-02-24 08:04:00,18.0,14.0,29.86,SSE,153,3.0,4.0,84,0.00,,,-99.99,,2013-02-24 14:04:00,
2013-02-24 08:13:00,20.0,16.0,29.87,SSE,155,5.0,7.0,84,0.00,,,-99.99,,2013-02-24 14:13:00,
2013-02-24 08:24:00,20.0,16.0,29.87,SSE,155,5.0,7.0,84,0.00,,,-99.99,,2013-02-24 14:24:00,
2013-02-24 08:33:00,22.0,17.0,29.87,SSE,149,5.0,7.0,82,0.00,,,-99.99,,2013-02-24 14:33:00,
2013-02-24 08:44:00,22.0,17.0,29.87,SSE,149,5.0,7.0,82,0.00,,,-99.99,,2013-02-24 14:44:00,
2013-02-24 08:53:00,23.0,18.0,29.87,SE,144,4.0,6.0,81,0.00,,,-99.99,,2013-02-24 14:53:00,
2013-02-24 09:02:00,24.0,18.0,29.88,SE,141,4.0,6.0,79,0.00,,,-99.99,,2013-02-24 15:02:00,
2013-02-24 09:13:00,27.0,20.0,29.88,South,172,4.0,6.0,76,0.00,,,-99.99,,2013-02-24 15:13:00,
2013-02-24 09:23:00,27.0,20.0,29.88,South,172,4.0,6.0,76,0.00,,,-99.99,,2013-02-24 15:23:00,
2013-02-24 09:32:00,30.0,22.0,29.89,SSE,168,3.0,4.0,71,0.00,,,-99.99,,2013-02-24 15:32:00,
2013-02-24 09:42:00,30.0,22.0,29.89,SSE,168,3.0,4.0,71,0.00,,,-99.99,,2013-02-24 15:42:00,
2013-02-24 09:52:00,31.0,22.0,29.89,SSE,168,4.0,5.0,69,0.00,,,-99.99,,2013-02-24 15:52:00,
2013-02-24 10:01:00,33.0,24.0,29.88,SSE,162,8.0,10.0,70,0.00,,,-99.99,,2013-02-24 16:01:00,
2013-02-24 10:21:00,34.0,25.0,29.88,SE,140,11.0,14.0,69,0.00,,,-99.99,,2013-02-24 16:21:00,
2013-02-24 10:32:00,35.0,26.0,29.87,SE,137,13.0,16.0,68,0.00,,,-99.99,,2013-02-24 16:32:00,
2013-02-24 10:42:00,35.0,26.0,29.87,SE,137,13.0,16.0,68,0.00,,,-99.99,,2013-02-24 16:42:00,
2013-02-24 10:52:00,36.0,26.0,29.87,SE,138,13.0,17.0,67,0.00,,,-99.99,,2013-02-24 16:52:00,
2013-02-24 11:01:00,37.0,27.0,29.87,SE,136,12.0,18.0,66,0.01,,,-99.99,,2013-02-24 17:01:00,
2013-02-24 11:11:00,37.0,27.0,29.87,SE,136,12.0,18.0,66,0.01,,,-99.99,,2013-02-24 17:11:00,
2013-02-24 11:21:00,38.0,27.0,29.87,SE,133,12.0,16.0,65,0.01,,,-99.99,,2013-02-24 17:21:00,
2013-02-24 11:32:00,37.0,27.0,29.87,SE,128,7.0,15.0,67,0.02,,,-99.99,,2013-02-24 17:32:00,
2013-02-24 11:42:00,37.0,27.0,29.87,SE,128,7.0,15.0,67,0.02,,,-99.99,,2013-02-24 17:42:00,
2013-02-24 11:52:00,38.0,28.0,29.86,ESE,121,9.0,12.0,67,0.03,,,-99.99,,2013-02-24 17:52:00,
2013-02-24 12:01:00,38.0,27.0,29.85,SE,130,8.0,13.0,65,0.03,,,-99.99,,2013-02-24 18:01:00,
2013-02-24 12:11:00,38.0,27.0,29.85,SE,130,8.0,13.0,65,0.03,,,-99.99,,2013-02-24 18:11:00,
2013-02-24 12:22:00,39.0,28.0,29.85,SE,130,8.0,13.0,64,0.04,,,-99.99,,2013-02-24 18:22:00,
2013-02-24 12:32:00,40.0,29.0,29.83,SE,128,7.0,16.0,64,0.04,,,-99.99,,2013-02-24 18:32:00,
2013-02-24 12:42:00,40.0,29.0,29.83,SE,128,7.0,16.0,64,0.04,,,-99.99,,2013-02-24 18:42:00,
2013-02-24 12:51:00,40.0,29.0,29.82,SE,129,7.0,13.0,65,0.03,,,-99.99,,2013-02-24 18:51:00,
2013-02-24 13:01:00,41.0,29.0,29.81,East,80,7.0,11.0,63,0.03,,,-99.99,,2013-02-24 19:01:00,
2013-02-24 13:11:00,41.0,29.0,29.81,East,80,7.0,11.0,63,0.03,,,-99.99,,2013-02-24 19:11:00,
2013-02-24 13:22:00,42.0,30.0,29.80,SE,130,6.0,13.0,63,0.02,,,-99.99,,2013-02-24 19:22:00,
2013-02-24 13:32:00,42.0,30.0,29.80,ESE,123,6.0,14.0,63,0.01,,,-99.99,,2013-02-24 19:32:00,
2013-02-24 13:42:00,42.0,30.0,29.80,ESE,123,6.0,14.0,63,0.01,,,-99.99,,2013-02-24 19:42:00,
2013-02-24 13:51:00,41.0,30.0,29.80,SE,130,9.0,13.0,65,0.02,,,-99.99,,2013-02-24 19:51:00,
2013-02-24 14:02:00,41.0,30.0,29.79,SE,127,11.0,13.0,64,0.01,,,-99.99,,2013-02-24 20:02:00,
2013-02-24 14:11:00,41.0,30.0,29.79,SE,127,11.0,13.0,64,0.01,,,-99.99,,2013-02-24 20:11:00,
2013-02-24 14:21:00,39.0,29.0,29.79,SE,132,11.0,15.0,67,0.01,,,-99.99,,2013-02-24 20:21:00,
2013-02-24 14:32:00,40.0,30.0,29.79,SE,136,10.0,13.0,66,0.01,,,-99.99,,2013-02-24 20:32:00,
2013-02-24 14:42:00,40.0,30.0,29.79,SE,136,10.0,13.0,66,0.01,,,-99.99,,2013-02-24 20:42:00,
2013-02-24 14:52:00,40.0,30.0,29.78,SE,129,10.0,15.0,67,0.00,,,-99.99,,2013-02-24 20:52:00,
2013-02-24 15:01:00,41.0,31.0,29.78,SE,130,10.0,12.0,66,0.00,,,-99.99,,2013-02-24 21:01:00,
2013-02-24 15:11:00,41.0,31.0,29.78,SE,130,10.0,12.0,66,0.00,,,-99.99,,2013-02-24 21:11:00,
2013-02-24 15:21:00,41.0,31.0,29.78,SE,128,9.0,13.0,66,0.00,,,-99.99,,2013-02-24 21:21:00,
2013-02-24 15:32:00,42.0,31.0,29.78,SE,130,6.0,9.0,64,0.00,,,-99.99,,2013-02-24 21:32:00,
2013-02-24 15:42:00,42.0,31.0,29.78,SE,130,6.0,9.0,64,0.00,,,-99.99,,2013-02-24 21:42:00,
2013-02-24 15:52:00,42.0,31.0,29.79,SE,126,4.0,8.0,64,0.00,,,-99.99,,2013-02-24 21:52:00,
2013-02-24 16:01:00,42.0,30.0,29.79,SE,125,3.0,9.0,63,0.00,,,-99.99,,2013-02-24 22:01:00,
2013-02-24 16:11:00,42.0,30.0,29.79,SE,125,3.0,9.0,63,0.00,,,-99.99,,2013-02-24 22:11:00,
2013-02-24 16:21:00,42.0,31.0,29.79,ENE,75,0.0,3.0,64,0.00,,,-99.99,,2013-02-24 22:21:00,
2013-02-24 16:31:00,42.0,31.0,29.79,East,101,0.0,1.0,64,0.00,,,-99.99,,2013-02-24 22:31:00,
2013-02-24 16:41:00,42.0,31.0,29.79,East,101,0.0,1.0,64,0.00,,,-99.99,,2013-02-24 22:41:00,
2013-02-24 16:51:00,41.0,31.0,29.79,East,90,0.0,4.0,67,0.00,,,-99.99,,2013-02-24 22:51:00,
2013-02-24 17:02:00,41.0,30.0,29.79,ESE,107,0.0,4.0,65,0.00,,,-99.99,,2013-02-24 23:02:00,
2013-02-24 17:11:00,41.0,30.0,29.79,ESE,107,0.0,4.0,65,0.00,,,-99.99,,2013-02-24 23:11:00,
2013-02-24 17:21:00,40.0,30.0,29.79,ENE,76,0.0,2.0,67,0.00,,,-99.99,,2013-02-24 23:21:00,
2013-02-24 17:31:00,39.0,30.0,29.80,ENE,65,2.0,9.0,70,0.00,,,-99.99,,2013-02-24 23:31:00,
2013-02-24 17:42:00,39.0,30.0,29.80,ENE,65,2.0,9.0,70,0.00,,,-99.99,,2013-02-24 23:42:00,
2013-02-24 17:52:00,37.0,29.0,29.82,NE,42,0.0,4.0,72,0.00,,,-99.99,,2013-02-24 23:52:00,
2013-02-24 18:01:00,37.0,30.0,29.82,ENE,67,0.0,0.0,75,0.00,,,-99.99,,2013-02-25 00:01:00,
2013-02-24 18:11:00,37.0,30.0,29.82,ENE,67,0.0,0.0,75,0.00,,,-99.99,,2013-02-25 00:11:00,
2013-02-24 18:21:00,37.0,30.0,29.79,East,82,0.0,7.0,75,0.00,,,0.08,,2013-02-25 00:21:00,
2013-02-24 18:32:00,36.0,29.0,29.83,ENE,59,0.0,4.0,76,0.00,,,0.08,,2013-02-25 00:32:00,
2013-02-24 18:42:00,36.0,29.0,29.83,ENE,59,0.0,4.0,76,0.00,,,0.08,,2013-02-25 00:42:00,
2013-02-24 18:51:00,36.0,29.0,29.84,ENE,63,0.0,1.0,76,0.00,,,0.08,,2013-02-25 00:51:00,
2013-02-24 19:01:00,36.0,29.0,29.85,North,360,0.0,1.0,77,0.00,,,0.08,,2013-02-25 01:01:00,
2013-02-24 19:11:00,36.0,29.0,29.85,North,360,0.0,1.0,77,0.00,,,0.08,,2013-02-25 01:11:00,
2013-02-24 19:21:00,36.0,30.0,29.86,North,5,0.0,1.0,79,0.00,,,0.08,,2013-02-25 01:21:00,
2013-02-24 19:31:00,36.0,30.0,29.86,NE,45,0.0,5.0,78,0.00,,,0.08,,2013-02-25 01:31:00,
2013-02-24 19:42:00,36.0,30.0,29.86,NE,45,0.0,5.0,78,0.00,,,0.08,,2013-02-25 01:42:00,
2013-02-24 19:51:00,35.0,29.0,29.87,NNE,29,0.0,1.0,79,0.00,,,0.08,,2013-02-25 01:51:00,
2013-02-24 20:01:00,35.0,29.0,29.88,ENE,71,0.0,1.0,79,0.00,,,0.08,,2013-02-25 02:01:00,
2013-02-24 20:11:00,35.0,29.0,29.88,ENE,71,0.0,1.0,79,0.00,,,0.08,,2013-02-25 02:11:00,
2013-02-24 20:21:00,35.0,29.0,29.88,NE,55,0.0,0.0,80,0.00,,,0.08,,2013-02-25 02:21:00,
2013-02-24 20:31:00,35.0,29.0,29.89,NE,46,0.0,0.0,80,0.00,,,0.08,,2013-02-25 02:31:00,
2013-02-24 20:41:00,35.0,29.0,29.89,NE,46,0.0,0.0,80,0.00,,,0.08,,2013-02-25 02:41:00,
2013-02-24 20:52:00,35.0,29.0,29.89,NE,45,0.0,0.0,80,0.00,,,0.08,,2013-02-25 02:52:00,
2013-02-24 21:01:00,35.0,29.0,29.90,NE,49,0.0,1.0,80,0.00,,,0.08,,2013-02-25 03:01:00,
2013-02-24 21:11:00,35.0,29.0,29.90,NE,49,0.0,1.0,80,0.00,,,0.08,,2013-02-25 03:11:00,
2013-02-24 21:21:00,35.0,30.0,29.90,NNW,344,0.0,0.0,81,0.00,,,0.08,,2013-02-25 03:21:00,
2013-02-24 21:31:00,35.0,30.0,29.90,NNW,345,0.0,1.0,81,0.00,,,0.08,,2013-02-25 03:31:00,
2013-02-24 21:42:00,35.0,30.0,29.90,NNW,345,0.0,1.0,81,0.00,,,0.08,,2013-02-25 03:42:00,
2013-02-24 21:51:00,35.0,30.0,29.90,North,360,0.0,0.0,81,0.00,,,0.08,,2013-02-25 03:51:00,
2013-02-24 22:01:00,34.0,29.0,29.91,NNW,348,0.0,1.0,82,0.00,,,0.08,,2013-02-25 04:01:00,
2013-02-24 22:11:00,34.0,29.0,29.91,NNW,348,0.0,1.0,82,0.00,,,0.08,,2013-02-25 04:11:00,
2013-02-24 22:21:00,35.0,29.0,29.91,NE,56,1.0,5.0,80,0.00,,,0.08,,2013-02-25 04:21:00,
2013-02-24 22:31:00,35.0,29.0,29.91,NNE,16,0.0,0.0,80,0.00,,,0.08,,2013-02-25 04:31:00,
2013-02-24 22:42:00,35.0,29.0,29.91,NNE,16,0.0,0.0,80,0.00,,,0.08,,2013-02-25 04:42:00,
2013-02-24 22:52:00,34.0,29.0,29.91,NNW,344,0.0,1.0,81,0.00,,,0.08,,2013-02-25 04:52:00,
2013-02-24 23:01:00,34.0,29.0,29.91,North,5,0.0,1.0,81,0.00,,,0.08,,2013-02-25 05:01:00,
2013-02-24 23:11:00,34.0,29.0,29.91,North,5,0.0,1.0,81,0.00,,,0.08,,2013-02-25 05:11:00,
2013-02-24 23:22:00,34.0,28.0,29.91,NNE,26,0.0,4.0,80,0.00,,,0.08,,2013-02-25 05:22:00,
2013-02-24 23:32:00,34.0,29.0,29.90,NNE,28,0.0,5.0,81,0.00,,,0.08,,2013-02-25 05:32:00,
2013-02-24 23:42:00,34.0,29.0,29.90,NNE,28,0.0,5.0,81,0.00,,,0.08,,2013-02-25 05:42:00,
2013-02-24 23:52:00,34.0,29.0,29.90,NNE,30,0.0,7.0,82,0.00,,,0.08,,2013-02-25 05:52:00,